Ainsworth, NE

3:14 PM CDT on August 28, 2016 (GMT -0500)
Ainsworth Municipal

Weather History for KANW - April, 2013

Change the Weather History Date:

Thursday, April 25, 2013

  Actual Average Record
Temperature  
Mean Temperature 52 °F -  
Max Temperature 74 °F 58 °F 80 °F (2012)
Min Temperature 31 °F 37 °F 26 °F (2002)
Degree Days  
Heating Degree Days 12    
Growing Degree Days 2 (Base 50)    
Moisture  
Dew Point 21 °F    
Average Humidity 41    
Maximum Humidity 79    
Minimum Humidity 6    
Precipitation  
Precipitation 0.00 in - - ()
Sea Level Pressure  
Sea Level Pressure 29.99 in    
Wind  
Wind Speed 13 mph (SW)    
Max Wind Speed 29 mph    
Max Gust Speed 37 mph    
Visibility 10 miles    
Events      
Averages and records for this station are not official NWS values.
T = Trace of Precipitation, MM = Missing Value Source: NWS Daily Summary

Daily Weather History Graph

Daily Weather History Graph

Search for Another Location

Airport or City:

Trip Planner

Search our weather history database for the weather conditions in past years. The results will help you decide how hot, cold, wet, or windy it might be!

Date:

Astronomy

Apr. 25, 2013 Rise Set
Actual Time 6:42 AM CDT 8:33 PM CDT
Civil Twilight 6:12 AM CDT 9:03 PM CDT
Nautical Twilight 5:35 AM CDT 9:40 PM CDT
Astronomical Twilight 4:56 AM CDT 10:20 PM CDT
Moon 8:49 PM CDT (4/25) 6:27 AM CDT (4/25)
Length of Visible Light 14h 51m
Length of Day
13h 50m
Full, 100% of the Moon is Illuminated
Apr 25
Full
Apr 25
Full
May 2
Last Quarter
May 9
New
May 17
First Quarter

Hourly Weather History & Observations

Time (CDT) Temp. Windchill Dew Point Humidity Pressure Visibility Wind Dir Wind Speed Gust Speed Precip Events Conditions
12:15 AM 32.0 °F 26.4 °F 23.9 °F 72% 30.16 in 10.0 mi SW 5.8 mph - N/A   Clear
12:35 AM 32.0 °F 26.4 °F 23.7 °F 71% 30.16 in 10.0 mi SW 5.8 mph - N/A   Clear
12:55 AM 31.6 °F 24.4 °F 24.4 °F 75% 30.15 in 10.0 mi SW 8.1 mph - N/A   Clear
1:15 AM 31.8 °F 25.4 °F 24.6 °F 75% 30.15 in 10.0 mi WSW 6.9 mph - N/A   Clear
1:35 AM 32.0 °F 24.2 °F 24.8 °F 75% 30.15 in 10.0 mi SW 9.2 mph - N/A   Clear
1:55 AM 32.0 °F 24.2 °F 24.8 °F 75% 30.15 in 10.0 mi SW 9.2 mph - N/A   Clear
2:15 AM 32.0 °F 24.2 °F 25.3 °F 76% 30.15 in 10.0 mi SW 9.2 mph - N/A   Clear
2:35 AM 31.3 °F 23.3 °F 25.3 °F 79% 30.15 in 10.0 mi SW 9.2 mph - N/A   Clear
2:55 AM 31.5 °F 24.9 °F 25.5 °F 79% 30.15 in 10.0 mi SW 6.9 mph - N/A   Clear
3:15 AM 31.8 °F 24.6 °F 26.1 °F 79% 30.14 in 10.0 mi SW 8.1 mph - N/A   Clear
3:35 AM 32.0 °F 24.2 °F 26.2 °F 79% 30.14 in 10.0 mi SW 9.2 mph - N/A   Clear
3:55 AM 32.0 °F 23.6 °F 25.7 °F 78% 30.13 in 10.0 mi SSW 10.4 mph - N/A   Clear
4:15 AM 32.0 °F 24.2 °F 25.7 °F 78% 30.14 in 10.0 mi SSW 9.2 mph - N/A   Clear
4:35 AM 31.6 °F 26.0 °F 24.8 °F 76% 30.13 in 10.0 mi SSW 5.8 mph - N/A   Clear
4:55 AM 32.5 °F 23.7 °F 25.7 °F 76% 30.12 in 10.0 mi SSW 11.5 mph - N/A   Clear
5:15 AM 33.1 °F 24.4 °F 25.7 °F 74% 30.12 in 10.0 mi SSW 11.5 mph 16.1 mph N/A   Clear
5:35 AM 32.5 °F 24.2 °F 25.7 °F 76% 30.12 in 10.0 mi SW 10.4 mph - N/A   Clear
5:55 AM 32.0 °F 24.8 °F 25.5 °F 77% 30.12 in 10.0 mi SW 8.1 mph - N/A   Clear
6:15 AM 32.2 °F 25.0 °F 25.5 °F 76% 30.12 in 10.0 mi SW 8.1 mph - N/A   Clear
6:35 AM 32.0 °F 25.6 °F 25.5 °F 77% 30.11 in 10.0 mi SW 6.9 mph - N/A   Clear
6:55 AM 31.6 °F 27.0 °F 25.0 °F 76% 30.11 in 10.0 mi SSW 4.6 mph - N/A   Clear
7:15 AM 32.5 °F 26.2 °F 25.7 °F 76% 30.11 in 10.0 mi SSW 6.9 mph - N/A   Clear
7:35 AM 34.7 °F 28.1 °F 26.1 °F 71% 30.11 in 10.0 mi SSW 8.1 mph - N/A   Clear
7:55 AM 36.5 °F 29.2 °F 26.6 °F 67% 30.11 in 10.0 mi SSW 10.4 mph - N/A   Clear
8:15 AM 38.3 °F 30.9 °F 26.8 °F 63% 30.10 in 10.0 mi SSW 11.5 mph - N/A   Clear
8:35 AM 40.5 °F 32.8 °F 28.2 °F 62% 30.10 in 10.0 mi SSW 13.8 mph - N/A   Clear
8:55 AM 42.8 °F 34.5 °F 29.3 °F 59% 30.10 in 10.0 mi SSW 18.4 mph 23.0 mph N/A   Clear
9:15 AM 44.4 °F 36.4 °F 29.8 °F 57% 30.09 in 10.0 mi SSW 19.6 mph - N/A   Clear
9:35 AM 46.8 °F - 29.5 °F 51% 30.08 in 10.0 mi SSW 24.2 mph - N/A   Clear
9:55 AM 49.3 °F - 29.1 °F 46% 30.07 in 10.0 mi SSW 17.3 mph - N/A   Clear
10:15 AM 51.1 °F - 26.4 °F 38% 30.06 in 10.0 mi South 24.2 mph 28.8 mph N/A   Clear
10:35 AM 53.2 °F - 25.3 °F 34% 30.04 in 10.0 mi South 25.3 mph 31.1 mph N/A   Clear
10:55 AM 54.5 °F - 23.9 °F 31% 30.03 in 10.0 mi South 27.6 mph 33.4 mph N/A   Clear
11:15 AM 55.9 °F - 25.3 °F 31% 30.03 in 10.0 mi South 24.2 mph 31.1 mph N/A   Clear
11:35 AM 57.2 °F - 25.0 °F 29% 30.01 in 10.0 mi SSW 26.5 mph 32.2 mph N/A   Clear
11:55 AM 58.5 °F - 23.9 °F 26% 30.01 in 10.0 mi SSW 24.2 mph 35.7 mph N/A   Clear
12:15 PM 60.4 °F - 25.0 °F 26% 30.00 in 10.0 mi SSW 26.5 mph 34.5 mph N/A   Clear
12:35 PM 61.7 °F - 23.9 °F 24% 29.99 in 10.0 mi SSW 28.8 mph 33.4 mph N/A   Clear
12:55 PM 63.0 °F - 23.5 °F 22% 29.99 in 10.0 mi SSW 24.2 mph 33.4 mph N/A   Clear
1:15 PM 65.3 °F - 22.1 °F 19% 29.97 in 10.0 mi SSW 25.3 mph 31.1 mph N/A   Clear
1:35 PM 67.6 °F - 20.3 °F 17% 29.95 in 10.0 mi SSW 23.0 mph 34.5 mph N/A   Clear
1:55 PM 68.2 °F - 16.9 °F 14% 29.94 in 10.0 mi SW 23.0 mph 36.8 mph N/A   Clear
2:15 PM 68.7 °F - 12.2 °F 11% 29.92 in 10.0 mi SW 24.2 mph 35.7 mph N/A   Clear
2:35 PM 70.3 °F - 6.6 °F 8% 29.91 in 10.0 mi SW 27.6 mph 33.4 mph N/A   Clear
2:55 PM 71.1 °F - 7.3 °F 8% 29.91 in 10.0 mi SW 26.5 mph 35.7 mph N/A   Clear
3:15 PM 72.1 °F - 7.5 °F 8% 29.89 in 10.0 mi SSW 26.5 mph 32.2 mph N/A   Clear
3:35 PM 72.7 °F - 6.3 °F 8% 29.89 in 10.0 mi SSW 23.0 mph 34.5 mph N/A   Clear
3:55 PM 73.4 °F - 6.6 °F 8% 29.87 in 10.0 mi SW 20.7 mph 32.2 mph N/A   Clear
4:15 PM 73.6 °F - 8.8 °F 8% 29.86 in 10.0 mi SW 19.6 mph 28.8 mph N/A   Clear
4:35 PM 74.1 °F - 9.5 °F 8% 29.85 in 10.0 mi SW 21.9 mph 29.9 mph N/A   Clear
4:55 PM 74.5 °F - 9.9 °F 8% 29.84 in 10.0 mi SSW 16.1 mph 24.2 mph N/A   Clear
5:15 PM 74.3 °F - 7.9 °F 8% 29.83 in 10.0 mi WSW 23.0 mph 28.8 mph N/A   Clear
5:35 PM 73.9 °F - 7.2 °F 8% 29.83 in 10.0 mi SSW 19.6 mph 28.8 mph N/A   Clear
5:55 PM 74.3 °F - 7.7 °F 8% 29.82 in 10.0 mi SW 21.9 mph 27.6 mph N/A   Clear
6:15 PM 74.7 °F - 7.0 °F 7% 29.82 in 10.0 mi WSW 15.0 mph 26.5 mph N/A   Scattered Clouds
6:35 PM 73.9 °F - 3.6 °F 6% 29.82 in 10.0 mi WSW 18.4 mph 23.0 mph N/A   Scattered Clouds
6:55 PM 73.4 °F - 4.5 °F 7% 29.82 in 10.0 mi WSW 15.0 mph - N/A   Clear
7:15 PM 72.5 °F - 4.5 °F 7% 29.82 in 10.0 mi West 13.8 mph - N/A   Clear
7:35 PM 71.8 °F - 4.1 °F 7% 29.82 in 10.0 mi WSW 11.5 mph 19.6 mph N/A   Clear
7:55 PM 69.3 °F - 10.6 °F 10% 29.82 in 10.0 mi WSW 9.2 mph - N/A   Clear
8:15 PM 66.4 °F - 12.4 °F 12% 29.82 in 10.0 mi WSW 6.9 mph - N/A   Clear
8:35 PM 61.5 °F - 19.0 °F 19% 29.83 in 10.0 mi WSW 5.8 mph - N/A   Clear
8:55 PM 59.9 °F - 21.0 °F 22% 29.83 in 10.0 mi SW 6.9 mph - N/A   Clear
9:15 PM 55.8 °F - 26.2 °F 32% 29.84 in 10.0 mi South 9.2 mph - N/A   Clear
9:35 PM 59.5 °F - 26.2 °F 28% 29.84 in 10.0 mi South 13.8 mph - N/A   Clear
9:55 PM 57.9 °F - 25.7 °F 29% 29.85 in 10.0 mi South 13.8 mph - N/A   Clear
10:15 PM 57.4 °F - 25.2 °F 29% 29.87 in 10.0 mi South 13.8 mph - N/A   Clear
10:35 PM 57.2 °F - 25.3 °F 29% 29.87 in 10.0 mi South 15.0 mph - N/A   Clear
10:55 PM 55.9 °F - 26.2 °F 32% 29.88 in 10.0 mi South 15.0 mph - N/A   Clear
11:15 PM 55.9 °F - 26.2 °F 32% 29.88 in 10.0 mi South 15.0 mph - N/A   Clear
11:35 PM 54.7 °F - 26.2 °F 33% 29.88 in 10.0 mi South 11.5 mph 17.3 mph N/A   Clear
11:55 PM 53.4 °F - 26.4 °F 35% 29.90 in 10.0 mi WNW 8.1 mph - N/A   Clear